Tracking 29892 objects as of 21-Nov-2024
HD Live streaming from Space Station
objects crossing your sky now

STARLINK-3636

Track STARLINK-3636 now!
10-day predictions
STARLINK-3636 is classified as:


NORAD ID: 51995
Int'l Code: 2022-025AR
Perigee: 545.8 km
Apogee: 547.9 km
Inclination: 53.2 °
Period: 95.4 minutes
Semi major axis: 6917 km
RCS: Unknown
Launch date: March 9, 2022
Source: United States (US)
Launch site: AIR FORCE EASTERN TEST RANGE (AFETR)
Your satellite tracking list
Your tracking list is empty




NASA's NSSDC Master Catalog

Two Line Element Set (TLE):
1 51995U 22025AR  24325.46337188 -.00000270  00000-0  11396-5 0  9991
2 51995  53.2173 348.0030 0001555  89.5191 270.5979 15.08847886149311
Source of the keplerian elements: AFSPC